HB9UQS-13 Weather Reports


time (UTC)temp
C
wind
direction
speed
KPH
gust
KPH
rain 1hr
cm
rain 24hr
cm
rain mn
cm
humidity
%
barometer
mb
20260505200729 7 139 0.0 0.0 0.00 0.00 0.00 92 924.9
20260505193730 7 269 1.6 3.2 0.00 0.00 0.00 89 924.6
20260505190730 10 62 0.0 0.0 0.00 0.00 0.00 81 924.4
20260505183729 11 249 1.6 3.2 0.00 0.00 0.00 75 924.2
20260505180729 11 234 3.2 6.4 0.00 0.00 0.00 74 924.0
20260505173730 12 238 4.8 9.7 0.00 0.00 0.00 72 924.2
20260505170730 12 293 8.0 16.1 0.00 0.00 0.00 78 924.6
20260505163730 13 272 3.2 8.0 0.00 0.00 0.00 81 924.4
20260505160730 11 243 1.6 4.8 0.00 0.00 0.00 85 924.2
20260505150730 12 293 8.0 17.7 0.00 0.00 0.00 87 924.2
20260505123730 12 280 4.8 11.3 0.00 0.00 0.00 84 924.2
20260505120730 12 305 6.4 9.7 0.00 0.00 0.00 87 924.1
20260505113730 12 296 6.4 12.9 0.00 0.00 0.00 85 924.2
20260505110730 12 261 3.2 8.0 0.00 0.00 0.00 91 924.2
20260505100730 11 287 4.8 9.7 0.00 0.00 0.00 93 924.1
20260505093729 11 328 3.2 8.0 0.00 0.00 0.00 94 924.1
20260505090730 11 289 3.2 6.4 0.00 0.00 0.00 91 924.1
20260505083730 11 146 0.0 3.2 0.00 0.00 0.00 90 923.9
20260505080730 11 199 0.0 1.6 0.00 0.00 0.00 93 924.1
20260505073729 10 113 0.0 3.2 0.00 0.00 0.00 94 924.3
20260505070730 10 257 3.2 9.7 0.00 0.00 0.00 96 924.7
20260505063729 9 276 4.8 12.9 0.00 0.00 0.00 96 924.9
20260505060730 8 289 4.8 9.7 0.00 0.00 0.00 96 925.1
20260505053729 8 290 6.4 12.9 0.00 0.00 0.00 97 925.2
20260505050730 8 281 6.4 16.1 0.00 0.00 0.00 97 925.0
20260505040729 8 93 1.6 3.2 0.00 0.00 0.00 97 925.1
20260505033729 8 142 0.0 1.6 0.00 0.00 0.00 97 925.2
20260505030730 8 238 0.0 0.0 0.00 0.00 0.00 97 925.2
20260505023730 8 264 1.6 3.2 0.00 0.00 0.00 97 925.6
20260505020730 7 280 0.0 0.0 0.00 0.00 0.00 97 925.6
20260505013730 7 243 1.6 3.2 0.00 0.00 0.00 97 925.9
20260505010730 7 315 0.0 1.6 0.00 0.00 0.00 97 925.9
20260505003729 7 290 0.0 3.2 0.00 0.00 0.00 97 926.4
20260505000729 7 155 0.0 1.6 0.00 0.00 0.00 97 926.7
20260504233730 7 306 1.6 6.4 0.00 0.00 0.00 96 927.0
20260504230730 6 19 0.0 0.0 0.00 0.00 0.00 96 927.4
20260504223729 6 50 0.0 1.6 0.00 0.00 0.00 95 927.5
20260504220730 5 198 1.6 4.8 0.00 0.00 0.00 95 927.6
20260504213730 5 176 0.0 0.0 0.00 0.00 0.00 94 927.8
20260504210729 6 122 1.6 3.2 0.00 0.00 0.00 94 928.0
20260504203729 7 288 1.6 3.2 0.00 0.00 0.00 93 928.3